Main page
METAR-TAF:

METAR-TAF

Airports :

Syros Island National Airport

Syros, Greece

latitude: 37-25-16N, longitude: 024-56-54E, elevation: 73 m

Current weather observation

The report was made 28 minutes ago, at 14:20 UTC
Wind 15 kt from the North
Temperature 29°C
Humidity 55%
Pressure 1011 hPa

METAR: LGSO 251420Z AUTO 35015KT //// // ////// 29/19 Q1011 RE//

Time: 17:48 (14:48 UTC)


TAF: missing

Weather observations and forecasts of more than 4000 airports (METAR and TAF reports).

The available stations are represented by yellow and red dots on the map.

Hover mouse over dot to see the name of the station.

Then click to see weather observations and forecasts.

To change the map : click on the green buttons with a black cross to zoom in, on the green button with a dash to zoom out, or on the green arrows for adjacent maps.


METAR-TAF: